NEMO-HD

Last updated on Fri Apr 25 2025 00:02:26 GMT+0000 (Coordinated Universal Time)

1 46277U 20061F 25114.46731725 .00014320 00000+0 42161-3 0 9999 2 46277 97.2490 177.0041 0002959 107.0697 253.0871 15.35157068257555
UTC large
Height (km)
Speed (km/s)
/
Latitude / Longitude
Inclination (degrees)
Orbital Period (minutes)
Azimuth
Elevation
Range (km)
Doppler Factor

Next 0 passes for location: London (51.5072 / 0.1276)

Sorry there are no passes over London.